Home   Weather   Worthing   Past weeks
Flag for United Kingdom

Past Weather in Worthing, England, United Kingdom — Yesterday and Last 2 Weeks

Now
50 °F

Partly sunny.


Feels Like: 47 °F
Forecast: 54 / 46 °F
Wind: 8 mph from Southwest

Location: Shoreham Airport

Current Time: Mar 22, 2019 at 12:51:28 pm

Latest Report: Mar 22, 2019 at 11:50 am


Visibility: 2 mi

Pressure: 30.39 "Hg

Humidity: 88%

Dew Point: 46 °F

Location of WorthingLocation

Past Weather in Worthing — Graph

°F

Worthing Temperature Yesterday

Maximum temperature yesterday: 52 °F (at 9:20 am)
Minimum temperature yesterday: 48 °F (at 6:20 pm)
Average temperature yesterday: 51 °F

High & Low Weather Summary for the Past Weeks

 TemperatureHumidityPressure
High61 °F (Mar 14, 1:50 pm)100% (Mar 12, 1:50 pm)30.54 "Hg (Mar 12, 1:50 pm)
Low41 °F (Mar 12, 3:20 pm)38% (Mar 9, 1:50 pm)29.36 "Hg (Mar 7, 11:20 am)
Average50 °F76%29.97 "Hg
* Reported Mar 7 11:20 am — Mar 22 11:20 am, Worthing. Weather by CustomWeather, © 2019

Note: Actual official high and low records may vary slightly from our data, if they occured in-between our weather recording intervals... More about our weather records

Advertising

Worthing Weather History for the Previous 24 Hours

Scroll right to see more
 ConditionsComfort  
Time TempWeatherWind HumidityBarometerVisibility
11:20 am
Fri, Mar 22
50 °FScattered clouds.9 mph88%30.39 "Hg2 mi
10:50 am50 °FPartly sunny.8 mph88%30.39 "Hg4 mi
10:20 am50 °FPartly sunny.9 mph82%30.39 "Hg4 mi
9:50 am48 °FPartly sunny.8 mph94%30.39 "Hg4 mi
9:20 am48 °FPartly sunny.7 mph94%30.39 "Hg3 mi
7:20 pm
Thu, Mar 21
48 °FPassing clouds.2 mph100%30.48 "HgN/A
6:50 pm48 °FPassing clouds.3 mph100%30.48 "HgN/A
6:20 pm48 °FPassing clouds.3 mph100%30.48 "Hg3 mi
5:50 pm50 °FPartly sunny.3 mph94%30.48 "Hg4 mi
5:20 pm50 °FPartly sunny.5 mph94%30.48 "Hg4 mi
4:50 pm50 °FPartly sunny.7 mph94%30.48 "Hg5 mi
4:20 pm50 °FPartly sunny.7 mph94%30.48 "Hg6 mi
3:50 pm50 °FPartly sunny.8 mph94%30.48 "HgN/A
3:20 pm50 °FPartly sunny.7 mph94%30.48 "HgN/A
2:50 pm52 °FPartly sunny.7 mph88%30.51 "HgN/A
2:20 pm52 °FPartly sunny.6 mph88%30.51 "HgN/A
1:50 pm52 °FPartly sunny.8 mph88%30.51 "HgN/A
1:20 pm52 °FBroken clouds.8 mph88%30.51 "Hg6 mi
12:50 pm52 °FBroken clouds.8 mph88%30.54 "Hg5 mi
Weather by CustomWeather, © 2019

See weather overview